DW2789 Weather Reports


Display with metric or nautical units.
time (UTC)temp
F
wind
direction
speed
MPH
gust
MPH
rain 1hr
in
rain 24hr
in
rain mn
in
humidity
%
barometer
mb
20260509093933 52 58 0.0 0.0 0.00 0.00 0.00 68 1019.9
20260509092939 53 57 0.0 0.0 0.00 0.00 0.00 66 1019.8
20260509091945 54 58 0.0 1.0 0.00 0.00 0.00 65 1019.8
20260509090948 54 58 0.0 0.0 0.00 0.00 0.00 64 1019.6
20260509085929 55 58 0.0 11.0 0.00 0.00 0.00 63 1019.5
20260509084935 55 46 0.0 12.0 0.00 0.00 0.00 63 1019.5
20260509083941 55 17 3.0 8.0 0.00 0.00 0.00 62 1019.5
20260509082937 55 36 0.0 12.0 0.00 0.00 0.00 62 1019.5
20260509081950 56 22 0.0 0.0 0.00 0.00 0.00 61 1019.5
20260509080949 56 22 1.0 9.0 0.00 0.00 0.00 61 1019.4
20260509075937 56 11 6.0 12.0 0.00 0.00 0.00 60 1019.4
20260509075011 57 32 5.0 11.0 0.00 0.00 0.00 60 1019.3
20260509072935 57 38 5.0 13.0 0.00 0.00 0.00 58 1019.2
20260509071935 57 26 1.0 12.0 0.00 0.00 0.00 58 1019.1
20260509070938 57 48 4.0 13.0 0.00 0.00 0.00 57 1018.9
20260509070007 58 25 5.0 15.0 0.00 0.00 0.00 56 1018.9
20260509063941 58 42 9.0 17.0 0.00 0.00 0.00 55 1018.8
20260509062944 58 50 5.0 13.0 0.00 0.00 0.00 55 1018.9
20260509061946 59 34 8.0 16.0 0.00 0.00 0.00 54 1018.7
20260509060935 59 40 8.0 16.0 0.00 0.00 0.00 53 1018.8
20260509055938 59 45 7.0 16.0 0.00 0.00 0.00 53 1018.6
20260509054944 59 23 8.0 15.0 0.00 0.00 0.00 52 1018.5
20260509053946 59 24 9.0 16.0 0.00 0.00 0.00 51 1018.5
20260509052936 60 55 9.0 17.0 0.00 0.00 0.00 51 1018.4
20260509051937 60 30 9.0 17.0 0.00 0.00 0.00 50 1018.3
20260509051004 60 48 10.0 17.0 0.00 0.00 0.00 49 1018.1
20260509045939 61 20 11.0 21.0 0.00 0.00 0.00 48 1018.0
20260509044939 61 34 10.0 18.0 0.00 0.00 0.00 47 1017.9
20260509043940 61 35 7.0 19.0 0.00 0.00 0.00 46 1017.6
20260509042936 62 10 9.0 16.0 0.00 0.00 0.00 45 1017.5
20260509041933 63 46 10.0 19.0 0.00 0.00 0.00 44 1017.4
20260509040937 63 49 8.0 20.0 0.00 0.00 0.00 43 1017.2
20260509035942 63 57 11.0 16.0 0.00 0.00 0.00 43 1017.1
20260509034946 63 49 9.0 20.0 0.00 0.00 0.00 41 1016.7
20260509033949 64 26 9.0 19.0 0.00 0.00 0.00 41 1016.4
20260509032931 64 34 8.0 16.0 0.00 0.00 0.00 41 1016.2
20260509031938 64 9 9.0 17.0 0.00 0.00 0.00 40 1016.1
20260509030941 65 37 12.0 18.0 0.00 0.00 0.00 39 1015.9
20260509025943 65 41 10.0 20.0 0.00 0.00 0.00 39 1015.8
20260509024945 66 26 10.0 16.0 0.00 0.00 0.00 40 1015.8
20260509023935 67 30 10.0 18.0 0.00 0.00 0.00 38 1015.5
20260509022938 67 46 9.0 18.0 0.00 0.00 0.00 37 1015.4
20260509021940 68 44 11.0 21.0 0.00 0.00 0.00 35 1015.3
20260509020942 68 53 12.0 20.0 0.00 0.00 0.00 34 1015.2
20260509015940 69 51 11.0 25.0 0.00 0.00 0.00 33 1015.1
20260509014941 70 37 13.0 20.0 0.00 0.00 0.00 33 1015.1
20260509013944 70 11 12.0 21.0 0.00 0.00 0.00 33 1015.1
20260509012944 70 360 15.0 21.0 0.00 0.00 0.00 32 1015.0
20260509011941 71 348 14.0 21.0 0.00 0.00 0.00 31 1015.0
20260509010948 71 338 8.0 19.0 0.00 0.00 0.00 31 1015.1
20260509010011 71 331 12.0 22.0 0.00 0.00 0.00 30 1015.1
20260509004931 71 327 7.0 26.0 0.00 0.00 0.00 30 1015.1
20260509003934 71 318 16.0 27.0 0.00 0.00 0.00 29 1015.2
20260509002936 71 286 12.0 23.0 0.00 0.00 0.00 28 1015.1
20260509001943 71 269 14.0 22.0 0.00 0.00 0.00 27 1015.3
20260509000949 72 252 12.0 20.0 0.00 0.00 0.00 26 1015.2
20260508235932 72 225 10.0 17.0 0.00 0.00 0.00 27 1015.2
20260508234937 72 222 10.0 20.0 0.00 0.00 0.00 27 1015.1
20260508233942 71 206 7.0 13.0 0.00 0.00 0.00 26 1015.2
20260508232945 70 198 1.0 9.0 0.00 0.00 0.00 26 1015.3
20260508231931 71 198 10.0 17.0 0.00 0.00 0.00 23 1015.3
20260508230944 71 185 8.0 19.0 0.00 0.00 0.00 22 1015.2
20260508230020 72 159 13.0 24.0 0.00 0.00 0.00 20 1015.3
20260508225002 73 143 11.0 17.0 0.00 0.00 0.00 24 1015.4
20260508223940 73 136 11.0 19.0 0.00 0.00 0.00 25 1015.5
20260508222939 73 126 12.0 17.0 0.00 0.00 0.00 25 1015.4
20260508222002 72 122 16.0 21.0 0.00 0.00 0.00 24 1015.5
20260508220931 72 116 12.0 22.0 0.00 0.00 0.00 29 1015.6
20260508215953 72 114 12.0 24.0 0.00 0.00 0.00 32 1015.6
20260508214939 71 111 16.0 22.0 0.00 0.00 0.00 32 1015.4
20260508213942 71 123 13.0 21.0 0.00 0.00 0.00 33 1015.5
20260508212948 71 124 9.0 15.0 0.00 0.00 0.00 34 1015.6
20260508211955 71 128 5.0 15.0 0.00 0.00 0.00 39 1015.6
20260508210959 70 130 10.0 18.0 0.00 0.00 0.00 39 1015.5
20260508205941 70 129 7.0 13.0 0.00 0.00 0.00 39 1015.4
20260508204944 70 130 4.0 10.0 0.00 0.00 0.00 39 1015.3
20260508203929 70 129 8.0 12.0 0.00 0.00 0.00 40 1015.3
20260508202936 70 130 10.0 15.0 0.00 0.00 0.00 39 1015.3
20260508201937 70 131 9.0 17.0 0.00 0.00 0.00 39 1015.3
20260508200938 70 133 10.0 15.0 0.00 0.00 0.00 39 1015.3
20260508195939 70 134 8.0 13.0 0.00 0.00 0.00 40 1015.3
20260508194938 69 133 9.0 16.0 0.00 0.00 0.00 37 1015.4
20260508193939 70 136 8.0 16.0 0.00 0.00 0.00 37 1015.3
20260508192939 70 136 6.0 14.0 0.00 0.00 0.00 39 1015.3
20260508191941 70 136 7.0 13.0 0.00 0.00 0.00 38 1015.5
20260508190936 69 136 7.0 16.0 0.00 0.00 0.00 38 1015.5
20260508185942 67 136 1.0 8.0 0.00 0.00 0.00 41 1015.8
20260508184948 66 136 1.0 6.0 0.00 0.00 0.00 42 1016.0
20260508183930 66 136 0.0 0.0 0.00 0.00 0.00 44 1016.0
20260508182937 66 136 0.0 8.0 0.00 0.00 0.00 43 1016.1
20260508181941 65 136 2.0 10.0 0.00 0.00 0.00 46 1016.2
20260508181003 65 136 5.0 11.0 0.00 0.00 0.00 45 1016.4
20260508175948 65 136 4.0 11.0 0.00 0.00 0.00 44 1016.4
20260508174935 65 136 4.0 12.0 0.00 0.00 0.00 43 1016.4
20260508173938 64 136 7.0 11.0 0.00 0.00 0.00 46 1016.4
20260508172941 64 136 7.0 15.0 0.00 0.00 0.00 47 1016.4
20260508171947 63 142 8.0 13.0 0.00 0.00 0.00 46 1016.4
20260508170951 63 142 10.0 14.0 0.00 0.00 0.00 47 1016.3
20260508165952 63 142 6.0 10.0 0.00 0.00 0.00 48 1016.2
20260508164938 63 142 8.0 14.0 0.00 0.00 0.00 48 1016.2
20260508163935 63 143 8.0 13.0 0.00 0.00 0.00 48 1016.1
20260508162938 63 140 8.0 16.0 0.00 0.00 0.00 48 1016.0
20260508161943 63 128 7.0 11.0 0.00 0.00 0.00 46 1015.9
20260508160950 62 128 3.0 14.0 0.00 0.00 0.00 47 1015.8
20260508155934 62 95 8.0 13.0 0.00 0.00 0.00 46 1015.8
20260508154935 62 48 5.0 10.0 0.00 0.00 0.00 46 1015.9
20260508153945 60 21 0.0 0.0 0.00 0.00 0.00 46 1015.8
20260508152947 59 22 0.0 0.0 0.00 0.00 0.00 53 1015.9
20260508151933 58 21 0.0 0.0 0.00 0.00 0.00 48 1015.9
20260508150936 58 21 0.0 0.0 0.00 0.00 0.00 52 1015.8
20260508145943 57 22 0.0 4.0 0.00 0.00 0.00 48 1015.6
20260508144945 56 21 1.0 5.0 0.00 0.00 0.00 49 1015.5
20260508143930 56 22 0.0 11.0 0.00 0.00 0.00 51 1015.5
20260508142936 55 22 2.0 11.0 0.00 0.00 0.00 51 1015.4
20260508141941 54 22 0.0 0.0 0.00 0.00 0.00 50 1015.3
20260508140943 54 22 0.0 0.0 0.00 0.00 0.00 52 1015.2
20260508135944 54 22 0.0 6.0 0.00 0.00 0.00 52 1015.2
20260508133942 54 22 0.0 8.0 0.00 0.00 0.00 51 1015.3
20260508133001 54 21 0.0 3.0 0.00 0.00 0.00 55 1015.4
20260508132004 53 22 0.0 6.0 0.00 0.00 0.00 55 1015.4
20260508130946 52 22 0.0 0.0 0.00 0.00 0.00 51 1015.4
20260508130010 52 21 0.0 0.0 0.00 0.00 0.00 51 1015.3
20260508124932 52 21 0.0 0.0 0.00 0.00 0.00 47 1015.2
20260508123937 51 21 0.0 0.0 0.00 0.00 0.00 46 1015.2
20260508122947 50 22 0.0 0.0 0.00 0.00 0.00 45 1015.0
20260508121950 50 21 0.0 0.0 0.00 0.00 0.00 46 1014.8
20260508120933 50 22 0.0 0.0 0.00 0.00 0.00 47 1014.9
20260508115936 51 22 0.0 0.0 0.00 0.00 0.00 47 1014.7
20260508114943 51 21 0.0 0.0 0.00 0.00 0.00 46 1014.6
20260508113949 51 22 0.0 0.0 0.00 0.00 0.00 44 1014.6
20260508112932 51 22 0.0 0.0 0.00 0.00 0.00 45 1014.4
20260508111935 51 22 0.0 0.0 0.00 0.00 0.00 44 1014.3
20260508110940 52 22 1.0 6.0 0.00 0.00 0.00 45 1014.0
20260508104949 52 21 0.0 6.0 0.00 0.00 0.00 45 1014.0
20260508103947 52 22 0.0 0.0 0.00 0.00 0.00 46 1014.0
20260508102949 52 22 0.0 3.0 0.00 0.00 0.00 46 1014.0
20260508101948 52 22 1.0 5.0 0.00 0.00 0.00 46 1014.1
20260508100948 52 21 2.0 6.0 0.00 0.00 0.00 47 1014.1
20260508095930 52 21 0.0 3.0 0.00 0.00 0.00 45 1014.2
20260508094936 52 22 0.0 7.0 0.00 0.00 0.00 41 1014.3